Weather in Magri

Russia / Krasnodar Krai     44°01′19″N   39°09′36″E
temp.,
°C
wind,
m/s
gust,
m/s
humid.,
%
clouds,
%
prec.,
mm/h
press.,
hPa
HPBL,
m
12 april, mon
mon1200:00+8s5795100 2.9 1021520
03:00+8s5794100 3.8 1021566
06:00+8s4593100 0.7 1021400
09:00+8sse4791100 0.9 1022531
12:00+9sse3584100 0.3 1023535
15:00+9s448269 0.3 1023431
18:00+9sse238387 0.1 1023284
21:00+8sse1189100 0.4 1024228
13 april, tue
tue1300:00+8sse1189100 0.5 1024167
03:00+8sse1191100 1.5 1024152
06:00+8n228991 0.4 1023158
09:00+9nw2286100 0.4 1023235
12:00+9w3288100 0.0 1023399
15:00+8wnw1191100 0.1 1023210
18:00+9w228973 0.1 1022167
21:00+9nw3390100 0.1 1021157
14 april, wed
wed1400:00+9nnw1190100 0.0 101926
03:00+8se2392100 0.0 1020203
06:00+8se2290100 0.0 1019155
09:00+9sse3386100 0.1 1020346
12:00+10s4583100 0.0 1020417
15:00+11s448331 0.1 1019376
18:00+9sse118912 0.0 1018129
21:00+9ene229039 0.0 101852
15 april, thu
thu1500:00+9ne228563 0.0 101717
03:00+9ne22794 0.0 101621
06:00+9ne33745 0.0 101530
09:00+13wsw01605 0.0 1015149
12:00+13wsw1357100 0.0 1015279
15:00+14wnw226330 0.1 1015210
18:00+12nw227044 0.0 101520
21:00+11wnw3381100 0.1 101741
16 april, fri
fri1600:00+10se3386100 1.7 101876
03:00+10s229175 1.7 101872
06:00+9wsw129493 0.0 1019184
09:00+9ssw1293100 0.1 1020204
12:00+9sw229699 0.1 1020204
15:00+10w229491 0.3 1020213
18:00+8nnw229099 0.7 1020178
21:00+9nw22844 0.9 102076